IGO0012 LTFM-VIDP

Flight info

Callsign IGO0012
Flight time N/A
Altitude 33000
Route VICEN UT380 ASMAP UL333 LATGA UT363 GURBU UA4 ERZ UN161 INDUR DCT PEMAN N161 EDATA N199 LUSAL M11 RODAR A909 KEKAL/N0459F350 A909 LEMOD N644 REGET G325 HANGU L509 NONIB T400 SULOM A466 ELKUX ELKUX7G
Aircraft A21N/M-SDE3FGHIRWY/LB1

Departure

Time N/A
Airport İstanbul Airport (LTFM)

Arrival

Time 2026-05-05 17:56
Airport Indira Gandhi International Airport (VIDP)
Time Latitude Longitude Altitude Speed Heading
2026-05-05 15:08 39.38012 56.75592 33745 ft 500 kts 110°
2026-05-05 15:08 39.37019 56.79873 33870 ft 501 kts 110°
2026-05-05 15:08 39.35983 56.84170 34026 ft 501 kts 112°
2026-05-05 15:08 39.34901 56.88400 34199 ft 500 kts 112°
2026-05-05 15:09 39.33807 56.92600 34404 ft 499 kts 112°
2026-05-05 15:09 39.32713 56.96808 34579 ft 499 kts 112°
2026-05-05 15:09 39.31616 57.01035 34746 ft 498 kts 112°
2026-05-05 15:10 39.29430 57.09472 34763 ft 497 kts 111°
2026-05-05 15:10 39.27247 57.17903 34771 ft 498 kts 111°
2026-05-05 15:11 39.25067 57.26311 34773 ft 497 kts 111°
2026-05-05 15:11 39.22868 57.34753 34776 ft 497 kts 111°
2026-05-05 15:12 39.20672 57.43164 34778 ft 496 kts 111°
2026-05-05 15:12 39.18474 57.51554 34781 ft 495 kts 111°
2026-05-05 15:13 39.16264 57.59958 34784 ft 495 kts 111°
2026-05-05 15:13 39.14065 57.68290 34780 ft 493 kts 111°
2026-05-05 15:14 39.11867 57.76593 34779 ft 493 kts 111°
2026-05-05 15:14 39.09658 57.84910 34772 ft 492 kts 111°
2026-05-05 15:15 39.07435 57.93246 34769 ft 491 kts 111°
2026-05-05 15:15 39.05231 58.01502 34769 ft 491 kts 111°
2026-05-05 15:16 39.03013 58.09781 34772 ft 490 kts 111°
2026-05-05 15:16 39.00804 58.17992 34772 ft 490 kts 111°
2026-05-05 15:17 38.98576 58.26245 34778 ft 490 kts 111°
2026-05-05 15:17 38.96347 58.34484 34779 ft 489 kts 111°
2026-05-05 15:18 38.94127 58.42660 34781 ft 488 kts 111°
2026-05-05 15:18 38.91899 58.50853 34783 ft 489 kts 111°
2026-05-05 15:19 38.89645 58.59084 34784 ft 488 kts 111°
2026-05-05 15:19 38.86998 58.66996 34784 ft 486 kts 119°
2026-05-05 15:20 38.83968 58.74713 34789 ft 485 kts 120°
2026-05-05 15:20 38.80920 58.82429 34791 ft 485 kts 120°
2026-05-05 15:21 38.77885 58.90134 34799 ft 485 kts 119°
2026-05-05 15:21 38.74867 58.97796 34806 ft 485 kts 119°
2026-05-05 15:22 38.71825 59.05498 34809 ft 485 kts 119°
2026-05-05 15:22 38.68788 59.13173 34808 ft 485 kts 119°
2026-05-05 15:23 38.65733 59.20875 34810 ft 485 kts 120°
2026-05-05 15:23 38.62694 59.28521 34808 ft 484 kts 119°
2026-05-05 15:24 38.59657 59.36134 34809 ft 484 kts 119°
2026-05-05 15:24 38.56720 59.43878 34809 ft 485 kts 117°
2026-05-05 15:25 38.53868 59.51626 34811 ft 485 kts 117°
2026-05-05 15:25 38.50981 59.59423 34811 ft 485 kts 117°
2026-05-05 15:26 38.48099 59.67163 34807 ft 485 kts 118°
2026-05-05 15:26 38.45203 59.74911 34818 ft 485 kts 118°
2026-05-05 15:27 38.42303 59.82651 34821 ft 484 kts 118°
2026-05-05 15:27 38.39407 59.90358 34815 ft 484 kts 118°
2026-05-05 15:28 38.36504 59.98066 34811 ft 483 kts 118°
2026-05-05 15:28 38.33598 60.05763 34814 ft 484 kts 117°
2026-05-05 15:29 38.30679 60.13470 34816 ft 485 kts 117°
2026-05-05 15:29 38.27758 60.21164 34813 ft 485 kts 117°
2026-05-05 15:30 38.24835 60.28851 34817 ft 485 kts 117°
2026-05-05 15:30 38.21910 60.36517 34815 ft 485 kts 117°
2026-05-05 15:31 38.18969 60.44207 34821 ft 485 kts 117°
2026-05-05 15:31 38.16022 60.51893 34816 ft 485 kts 117°
2026-05-05 15:32 38.13084 60.59537 34820 ft 484 kts 117°
2026-05-05 15:32 38.10123 60.67221 34820 ft 484 kts 118°
2026-05-05 15:33 38.07175 60.74856 34823 ft 483 kts 118°
2026-05-05 15:33 38.04213 60.82507 34828 ft 484 kts 118°
2026-05-05 15:34 38.01269 60.90091 34829 ft 483 kts 118°
2026-05-05 15:34 37.98297 60.97725 34830 ft 484 kts 118°
2026-05-05 15:35 37.95327 61.05340 34830 ft 484 kts 118°
2026-05-05 15:35 37.92338 61.12983 34832 ft 485 kts 118°
2026-05-05 15:36 37.89344 61.20618 34838 ft 485 kts 117°
2026-05-05 15:36 37.86355 61.28228 34840 ft 484 kts 117°
2026-05-05 15:37 37.83361 61.35831 34846 ft 484 kts 117°
2026-05-05 15:37 37.80363 61.43425 34846 ft 484 kts 117°
2026-05-05 15:38 37.77366 61.50997 34853 ft 484 kts 117°
2026-05-05 15:38 37.74363 61.58570 34862 ft 485 kts 117°
2026-05-05 15:39 37.71352 61.66148 34861 ft 485 kts 118°
2026-05-05 15:39 37.68329 61.73743 34856 ft 485 kts 118°
2026-05-05 15:40 37.65301 61.81323 34855 ft 486 kts 118°
2026-05-05 15:40 37.62097 61.88823 34855 ft 485 kts 123°
2026-05-05 15:41 37.58298 61.95796 34860 ft 484 kts 128°
2026-05-05 15:41 37.54309 62.02544 34855 ft 484 kts 128°
2026-05-05 15:42 37.50290 62.09344 34868 ft 484 kts 128°
2026-05-05 15:42 37.46293 62.16117 34879 ft 483 kts 128°
2026-05-05 15:43 37.42299 62.22879 34880 ft 484 kts 128°
2026-05-05 15:43 37.38283 62.29666 34890 ft 484 kts 128°
2026-05-05 15:44 37.34276 62.36426 34891 ft 485 kts 128°
2026-05-05 15:44 37.30252 62.43201 34894 ft 486 kts 128°
2026-05-05 15:45 37.26212 62.49986 34903 ft 486 kts 128°
2026-05-05 15:45 37.22181 62.56744 34909 ft 486 kts 128°
2026-05-05 15:46 37.18134 62.63518 34918 ft 486 kts 128°
2026-05-05 15:46 37.14096 62.70264 34926 ft 486 kts 128°
2026-05-05 15:47 37.10049 62.77008 34926 ft 485 kts 128°
2026-05-05 15:47 37.05998 62.83745 34941 ft 486 kts 128°
2026-05-05 15:48 37.01928 62.90497 34939 ft 486 kts 128°
2026-05-05 15:48 36.97867 62.97225 34959 ft 487 kts 128°
2026-05-05 15:49 36.93804 63.03944 34961 ft 487 kts 128°
2026-05-05 15:49 36.89741 63.10650 34970 ft 486 kts 128°
2026-05-05 15:50 36.85659 63.17370 34973 ft 487 kts 128°
2026-05-05 15:50 36.81565 63.24095 34975 ft 487 kts 128°
2026-05-05 15:51 36.77474 63.30806 34985 ft 487 kts 128°
2026-05-05 15:51 36.73384 63.37502 34991 ft 488 kts 128°
2026-05-05 15:52 36.69268 63.44227 34992 ft 488 kts 128°
2026-05-05 15:52 36.65167 63.50914 35003 ft 488 kts 128°
2026-05-05 15:53 36.61033 63.57643 35020 ft 488 kts 128°
2026-05-05 15:53 36.56920 63.64320 35014 ft 488 kts 128°
2026-05-05 15:54 36.52779 63.71036 35034 ft 489 kts 129°
2026-05-05 15:54 36.48663 63.77690 35042 ft 489 kts 128°
2026-05-05 15:55 36.44505 63.84405 35041 ft 490 kts 128°
2026-05-05 15:55 36.40380 63.91053 35046 ft 489 kts 128°
2026-05-05 15:56 36.36237 63.97716 35055 ft 489 kts 128°
2026-05-05 15:56 36.32081 64.04390 35043 ft 489 kts 128°
2026-05-05 15:57 36.27922 64.11057 35047 ft 490 kts 128°
2026-05-05 15:57 36.23761 64.17718 35030 ft 490 kts 128°
2026-05-05 15:58 36.19590 64.24383 35026 ft 491 kts 128°
2026-05-05 15:58 36.15429 64.31053 35031 ft 492 kts 127°
2026-05-05 15:59 36.11386 64.37847 35034 ft 492 kts 126°
2026-05-05 15:59 36.07361 64.44653 35038 ft 492 kts 126°
2026-05-05 16:00 36.03315 64.51464 35048 ft 492 kts 127°
2026-05-05 16:00 35.99262 64.58259 35063 ft 493 kts 126°
2026-05-05 16:01 35.95216 64.65028 35080 ft 494 kts 127°
2026-05-05 16:01 35.91134 64.71844 35116 ft 494 kts 127°
2026-05-05 16:02 35.87071 64.78616 35148 ft 494 kts 127°
2026-05-05 16:02 35.82984 64.85416 35191 ft 493 kts 127°
2026-05-05 16:03 35.78891 64.92210 35229 ft 495 kts 127°
2026-05-05 16:03 35.74797 64.98989 35279 ft 495 kts 127°
2026-05-05 16:04 35.70686 65.05784 35314 ft 496 kts 127°
2026-05-05 16:04 35.66584 65.12554 35320 ft 497 kts 127°
2026-05-05 16:05 35.62463 65.19345 35364 ft 497 kts 127°
2026-05-05 16:05 35.58320 65.26152 35373 ft 497 kts 127°
2026-05-05 16:06 35.54204 65.32903 35415 ft 497 kts 127°
2026-05-05 16:06 35.50062 65.39684 35442 ft 497 kts 127°
2026-05-05 16:07 35.45943 65.46415 35448 ft 497 kts 127°
2026-05-05 16:07 35.41792 65.53184 35459 ft 497 kts 127°
2026-05-05 16:08 35.37649 65.59931 35477 ft 498 kts 127°
2026-05-05 16:08 35.33466 65.66730 35496 ft 498 kts 128°
2026-05-05 16:09 35.29320 65.73452 35511 ft 499 kts 127°
2026-05-05 16:09 35.25147 65.80205 35519 ft 499 kts 127°
2026-05-05 16:10 35.20954 65.86981 35546 ft 500 kts 128°
2026-05-05 16:10 35.16741 65.93777 35564 ft 501 kts 128°
2026-05-05 16:11 35.12553 66.00517 35573 ft 501 kts 127°
2026-05-05 16:12 35.04141 66.14027 35601 ft 501 kts 128°
2026-05-05 16:13 34.93562 66.30885 35642 ft 502 kts 128°
2026-05-05 16:13 34.89294 66.37579 35627 ft 503 kts 128°
2026-05-05 16:14 34.80726 66.51022 35633 ft 504 kts 128°
2026-05-05 16:15 34.72167 66.64420 35628 ft 504 kts 128°
2026-05-05 16:16 34.63548 66.77862 35628 ft 505 kts 128°
2026-05-05 16:17 34.57103 66.87890 35636 ft 507 kts 128°
2026-05-05 16:18 34.50590 66.97960 35626 ft 506 kts 129°
2026-05-05 16:19 34.44075 67.07980 35622 ft 507 kts 129°
2026-05-05 16:19 34.37536 67.18038 35599 ft 509 kts 128°
2026-05-05 16:20 34.28806 67.31419 35588 ft 508 kts 128°
2026-05-05 16:22 34.17813 67.48203 35579 ft 511 kts 129°
2026-05-05 16:23 34.08992 67.61618 35580 ft 513 kts 128°
2026-05-05 16:23 34.02359 67.71681 35577 ft 513 kts 129°
2026-05-05 16:24 33.97903 67.78419 35587 ft 514 kts 129°
2026-05-05 16:25 33.91172 67.88406 35574 ft 514 kts 130°
2026-05-05 16:25 33.84405 67.98412 35563 ft 515 kts 129°
2026-05-05 16:26 33.75388 68.11734 35541 ft 516 kts 129°
2026-05-05 16:27 33.70877 68.18384 35517 ft 516 kts 129°
2026-05-05 16:27 33.66359 68.25030 35501 ft 515 kts 129°
2026-05-05 16:28 33.61818 68.31704 35488 ft 515 kts 129°
2026-05-05 16:28 33.57304 68.38326 35469 ft 516 kts 129°
2026-05-05 16:29 33.52756 68.44914 35450 ft 515 kts 130°
2026-05-05 16:29 33.48085 68.51435 35429 ft 515 kts 131°
2026-05-05 16:30 33.43441 68.57906 35408 ft 515 kts 131°
2026-05-05 16:30 33.38789 68.64414 35405 ft 516 kts 131°
2026-05-05 16:31 33.34139 68.70925 35404 ft 516 kts 131°
2026-05-05 16:31 33.29453 68.77458 35401 ft 516 kts 131°
2026-05-05 16:32 33.24979 68.84076 35399 ft 516 kts 128°
2026-05-05 16:32 33.20604 68.90881 35406 ft 517 kts 128°
2026-05-05 16:33 33.16243 68.97662 35415 ft 517 kts 127°
2026-05-05 16:33 33.11863 69.04456 35424 ft 517 kts 128°
2026-05-05 16:34 33.07494 69.11211 35428 ft 518 kts 128°
2026-05-05 16:34 33.03102 69.17992 35420 ft 518 kts 128°
2026-05-05 16:35 32.98685 69.24803 35407 ft 518 kts 128°
2026-05-05 16:35 32.94308 69.31539 35379 ft 518 kts 128°
2026-05-05 16:36 32.89899 69.38316 35379 ft 519 kts 127°
2026-05-05 16:36 32.85484 69.45077 35358 ft 519 kts 128°
2026-05-05 16:37 32.81039 69.51826 35342 ft 520 kts 128°
2026-05-05 16:37 32.76591 69.58569 35359 ft 520 kts 128°
2026-05-05 16:38 32.72116 69.65356 35375 ft 520 kts 128°
2026-05-05 16:38 32.67684 69.72068 35369 ft 521 kts 128°
2026-05-05 16:39 32.63216 69.78825 35333 ft 522 kts 129°
2026-05-05 16:39 32.58736 69.85590 35289 ft 522 kts 128°
2026-05-05 16:40 32.54260 69.92339 35205 ft 523 kts 128°
2026-05-05 16:40 32.49780 69.99088 35164 ft 523 kts 128°
2026-05-05 16:41 32.45284 70.05846 35113 ft 522 kts 128°
2026-05-05 16:41 32.43224 70.09350 35062 ft 522 kts 115°
2026-05-05 16:41 32.42076 70.13354 35068 ft 514 kts 95°
2026-05-05 16:42 32.42041 70.17506 35075 ft 501 kts 74°
2026-05-05 16:42 32.43094 70.21336 35067 ft 482 kts 53°
2026-05-05 16:42 32.45054 70.24388 35058 ft 458 kts 33°
2026-05-05 16:42 32.47619 70.26472 35073 ft 441 kts 19°
2026-05-05 16:43 32.53070 70.29729 35060 ft 441 kts 19°
2026-05-05 16:43 32.58445 70.33234 35059 ft 443 kts 21°
2026-05-05 16:44 32.63779 70.36942 35048 ft 446 kts 23°
2026-05-05 16:44 32.69013 70.40900 35035 ft 446 kts 24°
2026-05-05 16:45 32.74210 70.44882 35016 ft 447 kts 24°
2026-05-05 16:45 32.79448 70.48886 35001 ft 446 kts 24°
2026-05-05 16:46 32.84640 70.52858 34983 ft 445 kts 24°
2026-05-05 16:46 32.89864 70.56857 34977 ft 445 kts 24°
2026-05-05 16:47 32.95041 70.60808 34969 ft 444 kts 23°
2026-05-05 16:47 33.00291 70.64686 34976 ft 444 kts 23°
2026-05-05 16:48 33.05508 70.68533 34972 ft 443 kts 24°
2026-05-05 16:48 33.10742 70.72405 34998 ft 442 kts 24°
2026-05-05 16:49 33.15970 70.76280 35012 ft 442 kts 24°
2026-05-05 16:49 33.21167 70.80138 35041 ft 442 kts 24°
2026-05-05 16:50 33.26374 70.84011 35072 ft 441 kts 24°
2026-05-05 16:50 33.31572 70.87880 35078 ft 440 kts 24°
2026-05-05 16:51 33.36771 70.91759 35067 ft 441 kts 24°
2026-05-05 16:51 33.41847 70.95985 35062 ft 450 kts 34°
2026-05-05 16:52 33.45956 71.01720 35067 ft 468 kts 50°
2026-05-05 16:52 33.48698 71.08902 35068 ft 483 kts 67°
2026-05-05 16:53 33.49735 71.16920 35060 ft 494 kts 80°
2026-05-05 16:53 33.50185 71.25092 35065 ft 493 kts 80°
2026-05-05 16:54 33.50648 71.33257 35059 ft 493 kts 80°
2026-05-05 16:54 33.51144 71.41438 35026 ft 492 kts 79°
2026-05-05 16:55 33.51644 71.49567 34988 ft 491 kts 79°
2026-05-05 16:55 33.52145 71.57696 34976 ft 492 kts 80°
2026-05-05 16:56 33.52639 71.65849 34963 ft 490 kts 80°
2026-05-05 16:56 33.53128 71.73959 34961 ft 491 kts 80°
2026-05-05 16:57 33.53608 71.82051 34946 ft 490 kts 80°
2026-05-05 16:57 33.53876 71.90228 34947 ft 492 kts 84°
2026-05-05 16:58 33.53941 71.98406 34926 ft 493 kts 84°
2026-05-05 16:58 33.53999 72.06566 34918 ft 493 kts 84°
2026-05-05 16:59 33.54060 72.14771 34928 ft 493 kts 84°
2026-05-05 16:59 33.54119 72.22937 34921 ft 492 kts 84°
2026-05-05 17:00 33.54172 72.31113 34928 ft 491 kts 84°
2026-05-05 17:00 33.54225 72.39221 34934 ft 490 kts 84°
2026-05-05 17:01 33.54272 72.47398 34945 ft 490 kts 84°
2026-05-05 17:01 33.54312 72.55514 34951 ft 490 kts 84°
2026-05-05 17:02 33.54349 72.63660 34945 ft 489 kts 84°
2026-05-05 17:02 33.54366 72.71793 34936 ft 491 kts 87°
2026-05-05 17:03 33.53976 72.75855 34944 ft 498 kts 98°
2026-05-05 17:03 33.52953 72.79809 34946 ft 503 kts 110°
2026-05-05 17:03 33.51302 72.83535 34938 ft 507 kts 122°
2026-05-05 17:03 33.49108 72.86809 34942 ft 507 kts 134°
2026-05-05 17:04 33.46450 72.89532 34947 ft 506 kts 146°
2026-05-05 17:04 33.43415 72.91627 34939 ft 504 kts 156°
2026-05-05 17:04 33.36979 72.94954 34938 ft 504 kts 159°
2026-05-05 17:05 33.30505 72.98255 34933 ft 506 kts 159°
2026-05-05 17:05 33.24098 73.01608 34933 ft 505 kts 158°
2026-05-05 17:06 33.17683 73.04994 34939 ft 505 kts 158°
2026-05-05 17:06 33.11232 73.08401 34925 ft 504 kts 158°
2026-05-05 17:07 33.04836 73.11774 34940 ft 505 kts 158°
2026-05-05 17:07 32.98407 73.15158 34931 ft 506 kts 158°
2026-05-05 17:08 32.91980 73.18542 34927 ft 507 kts 158°
2026-05-05 17:08 32.85531 73.21929 34927 ft 507 kts 158°
2026-05-05 17:09 32.79123 73.25478 34934 ft 508 kts 154°
2026-05-05 17:09 32.73048 73.29840 34915 ft 510 kts 146°
2026-05-05 17:10 32.67414 73.34892 34911 ft 513 kts 143°
2026-05-05 17:10 32.61761 73.40110 34904 ft 512 kts 143°
2026-05-05 17:11 32.56147 73.45253 34892 ft 512 kts 143°
2026-05-05 17:11 32.50522 73.50379 34888 ft 513 kts 143°
2026-05-05 17:12 32.44845 73.55540 34881 ft 513 kts 143°
2026-05-05 17:12 32.39197 73.60663 34893 ft 513 kts 143°
2026-05-05 17:13 32.33534 73.65794 34877 ft 513 kts 144°
2026-05-05 17:13 32.27908 73.70885 34885 ft 513 kts 144°
2026-05-05 17:14 32.22242 73.76002 34883 ft 513 kts 144°
2026-05-05 17:14 32.16563 73.81121 34874 ft 513 kts 144°
2026-05-05 17:15 32.10886 73.86231 34877 ft 514 kts 144°
2026-05-05 17:15 32.05228 73.91320 34877 ft 513 kts 144°
2026-05-05 17:16 31.99565 73.96404 34872 ft 514 kts 144°
2026-05-05 17:16 31.93863 74.01518 34872 ft 515 kts 144°
2026-05-05 17:17 31.88187 74.06602 34869 ft 514 kts 144°
2026-05-05 17:17 31.82524 74.11689 34870 ft 515 kts 144°
2026-05-05 17:18 31.76897 74.16891 34874 ft 515 kts 143°
2026-05-05 17:18 31.71275 74.22107 34865 ft 515 kts 143°
2026-05-05 17:19 31.65668 74.27290 34872 ft 515 kts 143°
2026-05-05 17:19 31.60006 74.32512 34879 ft 515 kts 143°
2026-05-05 17:20 31.54401 74.37677 34876 ft 516 kts 143°
2026-05-05 17:20 31.48781 74.42916 34866 ft 516 kts 142°
2026-05-05 17:21 31.43266 74.48239 34883 ft 517 kts 142°
2026-05-05 17:22 31.34950 74.56260 34868 ft 518 kts 140°
2026-05-05 17:22 31.29632 74.61968 34859 ft 518 kts 138°
2026-05-05 17:23 31.24402 74.67735 34865 ft 518 kts 138°
2026-05-05 17:23 31.19147 74.73518 34861 ft 519 kts 139°
2026-05-05 17:24 31.13913 74.79262 34857 ft 518 kts 138°
2026-05-05 17:24 31.08649 74.85023 34870 ft 520 kts 138°
2026-05-05 17:25 31.03389 74.90778 34860 ft 519 kts 139°
2026-05-05 17:25 30.98136 74.96515 34864 ft 519 kts 139°
2026-05-05 17:26 30.92871 75.02264 34863 ft 519 kts 139°
2026-05-05 17:26 30.87637 75.07958 34865 ft 518 kts 140°
2026-05-05 17:27 30.82016 75.13109 34870 ft 513 kts 149°
2026-05-05 17:27 30.75821 75.17148 34870 ft 508 kts 159°
2026-05-05 17:28 30.69215 75.20027 34872 ft 503 kts 167°
2026-05-05 17:28 30.62563 75.22428 34877 ft 503 kts 167°
2026-05-05 17:29 30.55862 75.24858 34874 ft 502 kts 167°
2026-05-05 17:29 30.49222 75.27292 34878 ft 501 kts 167°
2026-05-05 17:30 30.42576 75.29737 34873 ft 501 kts 167°
2026-05-05 17:30 30.35980 75.32159 34874 ft 502 kts 167°
2026-05-05 17:31 30.29334 75.34598 34876 ft 501 kts 167°
2026-05-05 17:31 30.22693 75.37034 34876 ft 501 kts 167°
2026-05-05 17:32 30.16092 75.39449 34886 ft 501 kts 167°
2026-05-05 17:32 30.09494 75.41863 34890 ft 501 kts 167°
2026-05-05 17:33 30.02841 75.44294 34730 ft 502 kts 167°
2026-05-05 17:33 29.99546 75.45496 34280 ft 499 kts 167°
2026-05-05 17:33 29.96242 75.46703 33696 ft 498 kts 167°
2026-05-05 17:33 29.93003 75.47884 33011 ft 498 kts 167°
2026-05-05 17:34 29.89762 75.49160 32329 ft 502 kts 162°
2026-05-05 17:34 29.86581 75.50850 31614 ft 507 kts 154°
2026-05-05 17:34 29.83590 75.52964 30926 ft 510 kts 147°
2026-05-05 17:34 29.80829 75.55486 30253 ft 511 kts 139°
2026-05-05 17:35 29.78336 75.58367 29586 ft 510 kts 133°
2026-05-05 17:35 29.76000 75.61393 28893 ft 509 kts 131°
2026-05-05 17:35 29.73722 75.64416 28169 ft 509 kts 130°
2026-05-05 17:35 29.71426 75.67461 27400 ft 508 kts 131°
2026-05-05 17:36 29.69147 75.70462 26640 ft 507 kts 131°
2026-05-05 17:36 29.66836 75.73483 25834 ft 507 kts 131°
2026-05-05 17:36 29.64545 75.76461 25029 ft 506 kts 131°
2026-05-05 17:36 29.62206 75.79492 24144 ft 507 kts 131°
2026-05-05 17:37 29.59884 75.82495 23237 ft 506 kts 131°
2026-05-05 17:37 29.58322 75.84512 22587 ft 506 kts 131°
2026-05-05 17:37 29.55213 75.88525 21578 ft 498 kts 131°
2026-05-05 17:37 29.52938 75.91460 20956 ft 491 kts 131°
2026-05-05 17:38 29.50694 75.94353 20304 ft 485 kts 131°
2026-05-05 17:38 29.48482 75.97205 19650 ft 480 kts 131°
2026-05-05 17:38 29.46267 76.00058 19204 ft 469 kts 131°
2026-05-05 17:38 29.44139 76.02796 18812 ft 458 kts 131°
2026-05-05 17:39 29.42049 76.05486 18433 ft 448 kts 131°
2026-05-05 17:39 29.40014 76.08103 18186 ft 435 kts 131°
2026-05-05 17:39 29.38017 76.10671 17883 ft 424 kts 131°
2026-05-05 17:39 29.36092 76.13142 17683 ft 412 kts 131°
2026-05-05 17:40 29.34223 76.15542 17476 ft 400 kts 131°
2026-05-05 17:40 29.32381 76.17906 17268 ft 390 kts 130°
2026-05-05 17:40 29.30587 76.20207 17008 ft 381 kts 130°
2026-05-05 17:40 29.28856 76.22424 16842 ft 371 kts 130°
2026-05-05 17:41 29.27147 76.24609 16630 ft 361 kts 130°
2026-05-05 17:41 29.25508 76.26701 16409 ft 353 kts 130°
2026-05-05 17:41 29.23871 76.28786 16023 ft 351 kts 130°
2026-05-05 17:41 29.22259 76.30841 15625 ft 349 kts 130°
2026-05-05 17:42 29.20642 76.32903 15233 ft 348 kts 130°
2026-05-05 17:42 29.19023 76.34967 14840 ft 346 kts 130°
2026-05-05 17:42 29.17414 76.37018 14437 ft 345 kts 130°
2026-05-05 17:42 29.15825 76.39043 14042 ft 344 kts 130°
2026-05-05 17:43 29.14228 76.41077 13643 ft 343 kts 130°
2026-05-05 17:43 29.12633 76.43110 13253 ft 341 kts 130°
2026-05-05 17:43 29.11075 76.45094 12879 ft 339 kts 130°
2026-05-05 17:43 29.09492 76.47113 12491 ft 338 kts 130°
2026-05-05 17:44 29.07930 76.49099 12119 ft 336 kts 130°
2026-05-05 17:44 29.06393 76.51052 11893 ft 329 kts 130°
2026-05-05 17:44 29.04882 76.52968 11873 ft 313 kts 130°
2026-05-05 17:44 29.03469 76.54758 11710 ft 306 kts 130°
2026-05-05 17:45 29.02040 76.56569 11227 ft 310 kts 130°
2026-05-05 17:45 29.00581 76.58418 10795 ft 312 kts 130°
2026-05-05 17:45 28.99127 76.60259 10403 ft 312 kts 130°
2026-05-05 17:45 28.97688 76.62083 10001 ft 313 kts 131°
2026-05-05 17:46 28.96218 76.63943 9600 ft 312 kts 131°
2026-05-05 17:46 28.94775 76.65768 9228 ft 312 kts 131°
2026-05-05 17:46 28.93319 76.67609 8843 ft 312 kts 131°
2026-05-05 17:46 28.91880 76.69428 8471 ft 310 kts 131°
2026-05-05 17:47 28.90424 76.71266 8100 ft 309 kts 131°
2026-05-05 17:47 28.89004 76.73062 7732 ft 308 kts 131°
2026-05-05 17:47 28.87564 76.74883 7347 ft 307 kts 131°
2026-05-05 17:47 28.86142 76.76680 6970 ft 305 kts 131°
2026-05-05 17:48 28.84716 76.78480 6589 ft 303 kts 131°
2026-05-05 17:48 28.83327 76.80231 6224 ft 301 kts 131°
2026-05-05 17:48 28.81921 76.81984 5855 ft 300 kts 133°
2026-05-05 17:48 28.80440 76.83629 5751 ft 287 kts 135°
2026-05-05 17:49 28.79026 76.85149 5764 ft 270 kts 135°
2026-05-05 17:49 28.77679 76.86588 5790 ft 266 kts 135°
2026-05-05 17:49 28.76322 76.88046 5815 ft 267 kts 135°
2026-05-05 17:49 28.74971 76.89502 5837 ft 267 kts 135°
2026-05-05 17:50 28.73529 76.90860 5847 ft 268 kts 152°
2026-05-05 17:50 28.71751 76.91425 5860 ft 266 kts 182°
2026-05-05 17:50 28.69964 76.91027 5674 ft 262 kts 207°
2026-05-05 17:50 28.68482 76.89915 5366 ft 255 kts 224°
2026-05-05 17:51 28.67143 76.88596 5053 ft 254 kts 221°
2026-05-05 17:51 28.65708 76.87418 4748 ft 253 kts 213°
2026-05-05 17:51 28.64153 76.86453 4445 ft 253 kts 206°
2026-05-05 17:51 28.62519 76.85735 4134 ft 253 kts 193°
2026-05-05 17:52 28.60803 76.85837 3779 ft 249 kts 154°
2026-05-05 17:52 28.59525 76.87045 3715 ft 241 kts 121°
2026-05-05 17:52 28.58816 76.88760 3688 ft 239 kts 104°
2026-05-05 17:52 28.58420 76.90604 3593 ft 236 kts 99°
2026-05-05 17:53 28.58094 76.92419 3332 ft 234 kts 99°
2026-05-05 17:53 28.57743 76.94202 3036 ft 233 kts 101°
2026-05-05 17:53 28.57359 76.95996 2738 ft 231 kts 102°
2026-05-05 17:53 28.56975 76.97745 2502 ft 221 kts 103°
2026-05-05 17:54 28.56622 76.99360 2238 ft 205 kts 103°
2026-05-05 17:54 28.56293 77.00884 1948 ft 193 kts 103°
2026-05-05 17:54 28.55989 77.02298 1710 ft 178 kts 103°
2026-05-05 17:54 28.55704 77.03606 1473 ft 164 kts 104°
2026-05-05 17:55 28.55431 77.04802 1249 ft 148 kts 104°
2026-05-05 17:55 28.55199 77.05933 1045 ft 145 kts 103°
2026-05-05 17:55 28.54973 77.07035 837 ft 142 kts 105°
2026-05-05 17:55 28.54744 77.08089 781 ft 123 kts 104°
2026-05-05 17:56 28.54579 77.08849 781 ft 74 kts 104°
2026-05-05 17:56 28.54494 77.09238 781 ft 34 kts 103°
2026-05-05 17:56 28.54481 77.09490 781 ft 24 kts 81°
2026-05-05 17:56 28.54519 77.09642 781 ft 10 kts 73°
2026-05-05 17:57 28.54547 77.09689 781 ft 6 kts 20°
2026-05-05 17:57 28.54592 77.09680 781 ft 6 kts 326°
2026-05-05 17:57 28.54611 77.09631 781 ft 7 kts 286°
2026-05-05 17:57 28.54625 77.09570 781 ft 8 kts 283°
2026-05-05 17:58 28.54643 77.09480 781 ft 13 kts 282°
2026-05-05 17:58 28.54666 77.09370 781 ft 14 kts 285°
2026-05-05 17:58 28.54684 77.09302 781 ft 0 kts 285°
2026-05-05 18:04 28.54688 77.09285 781 ft 5 kts 285°
2026-05-05 18:04 28.54704 77.09220 781 ft 11 kts 289°
2026-05-05 18:04 28.54769 77.09180 781 ft 12 kts 11°
2026-05-05 18:04 28.54858 77.09180 781 ft 12 kts 344°
2026-05-05 18:05 28.54938 77.09135 781 ft 10 kts 329°
2026-05-05 18:05 28.54960 77.09090 781 ft 7 kts 261°
2026-05-05 18:05 28.54939 77.09045 781 ft 0 kts 240°
2026-05-05 18:07 28.54935 77.09038 781 ft 0 kts 240°
2026-05-05 18:07 28.54934 77.09036 781 ft 0 kts 240°